Time,TemperatureF,DewpointF,PressureIn,WindDirection,WindDirectionDegrees,WindSpeedMPH,WindSpeedGustMPH,Humidity,HourlyPrecipIn,Conditions,Clouds,dailyrainin,SoftwareType,DateUTC
2013-07-30 00:02:00,45.0,40.0,30.04,ESE,113,0.0,-999.0,84,-99.99,,,-99.99,,2013-07-30 06:02:00,
2013-07-30 00:12:00,44.0,39.0,30.05,ESE,113,0.0,-999.0,84,-99.99,,,-99.99,,2013-07-30 06:12:00,
2013-07-30 00:22:00,43.0,38.0,30.05,ESE,113,0.0,-999.0,84,-99.99,,,-99.99,,2013-07-30 06:22:00,
2013-07-30 00:32:00,43.0,38.0,30.05,ESE,113,0.0,-999.0,84,-99.99,,,-99.99,,2013-07-30 06:32:00,
2013-07-30 00:43:00,42.0,38.0,30.05,ESE,113,0.0,-999.0,84,-99.99,,,-99.99,,2013-07-30 06:43:00,
2013-07-30 00:52:00,42.0,37.0,30.06,ESE,113,0.0,-999.0,83,-99.99,,,-99.99,,2013-07-30 06:52:00,
2013-07-30 01:02:00,42.0,37.0,30.06,ESE,113,0.0,-999.0,83,-99.99,,,-99.99,,2013-07-30 07:02:00,
2013-07-30 01:13:00,41.0,37.0,30.05,ESE,113,0.0,-999.0,84,-99.99,,,-99.99,,2013-07-30 07:13:00,
2013-07-30 01:22:00,41.0,37.0,30.06,ESE,113,0.0,-999.0,84,-99.99,,,-99.99,,2013-07-30 07:22:00,
2013-07-30 01:33:00,41.0,37.0,30.06,ESE,113,0.0,-999.0,84,-99.99,,,-99.99,,2013-07-30 07:33:00,
2013-07-30 01:43:00,40.0,36.0,30.06,ESE,113,0.0,-999.0,85,-99.99,,,-99.99,,2013-07-30 07:43:00,
2013-07-30 01:53:00,39.0,35.0,30.06,ESE,113,0.0,-999.0,85,-99.99,,,-99.99,,2013-07-30 07:53:00,
2013-07-30 02:03:00,39.0,35.0,30.06,ESE,113,0.0,-999.0,85,-99.99,,,-99.99,,2013-07-30 08:03:00,
2013-07-30 02:12:00,38.0,34.0,30.06,ESE,113,0.0,-999.0,86,-99.99,,,-99.99,,2013-07-30 08:12:00,
2013-07-30 02:22:00,38.0,34.0,30.06,ESE,113,0.0,-999.0,86,-99.99,,,-99.99,,2013-07-30 08:22:00,
2013-07-30 02:33:00,38.0,34.0,30.06,ESE,113,0.0,-999.0,86,-99.99,,,-99.99,,2013-07-30 08:33:00,
2013-07-30 02:43:00,37.0,33.0,30.06,ESE,113,0.0,-999.0,86,-99.99,,,-99.99,,2013-07-30 08:43:00,
2013-07-30 02:52:00,37.0,33.0,30.06,ESE,113,0.0,-999.0,86,-99.99,,,-99.99,,2013-07-30 08:52:00,
2013-07-30 03:03:00,37.0,33.0,30.06,ESE,113,0.0,-999.0,86,-99.99,,,-99.99,,2013-07-30 09:03:00,
2013-07-30 03:13:00,36.0,33.0,30.06,ESE,113,0.0,-999.0,87,-99.99,,,-99.99,,2013-07-30 09:13:00,
2013-07-30 03:22:00,37.0,34.0,30.07,ESE,113,0.0,-999.0,89,-99.99,,,-99.99,,2013-07-30 09:22:00,
2013-07-30 03:33:00,37.0,34.0,30.07,ESE,113,0.0,-999.0,89,-99.99,,,-99.99,,2013-07-30 09:33:00,
2013-07-30 03:43:00,37.0,33.0,30.07,ESE,113,0.0,-999.0,86,-99.99,,,-99.99,,2013-07-30 09:43:00,
2013-07-30 03:53:00,39.0,34.0,30.07,ESE,113,0.0,-999.0,81,-99.99,,,-99.99,,2013-07-30 09:53:00,
2013-07-30 04:03:00,39.0,34.0,30.07,ESE,113,0.0,-999.0,81,-99.99,,,-99.99,,2013-07-30 10:03:00,
2013-07-30 04:12:00,40.0,33.0,30.08,ESE,113,0.0,-999.0,77,-99.99,,,-99.99,,2013-07-30 10:12:00,
2013-07-30 04:22:00,41.0,34.0,30.09,ESE,113,0.0,-999.0,75,-99.99,,,-99.99,,2013-07-30 10:22:00,
2013-07-30 04:32:00,41.0,34.0,30.09,ESE,113,0.0,-999.0,75,-99.99,,,-99.99,,2013-07-30 10:32:00,
2013-07-30 04:43:00,42.0,33.0,30.08,ESE,113,0.0,-999.0,71,-99.99,,,-99.99,,2013-07-30 10:43:00,
2013-07-30 04:52:00,43.0,34.0,30.09,ESE,113,0.0,-999.0,70,-99.99,,,-99.99,,2013-07-30 10:52:00,
2013-07-30 05:02:00,43.0,34.0,30.09,ESE,113,0.0,-999.0,70,-99.99,,,-99.99,,2013-07-30 11:02:00,
2013-07-30 05:11:00,42.0,33.0,30.08,ESE,113,0.0,-999.0,71,-99.99,,,-99.99,,2013-07-30 11:11:00,
2013-07-30 05:22:00,43.0,34.0,30.09,ESE,113,0.0,-999.0,71,-99.99,,,-99.99,,2013-07-30 11:22:00,
2013-07-30 05:33:00,43.0,34.0,30.09,ESE,113,0.0,-999.0,71,-99.99,,,-99.99,,2013-07-30 11:33:00,
2013-07-30 05:43:00,42.0,33.0,30.09,ESE,113,0.0,-999.0,71,-99.99,,,-99.99,,2013-07-30 11:43:00,
2013-07-30 05:53:00,42.0,34.0,30.10,ESE,113,0.0,-999.0,73,-99.99,,,-99.99,,2013-07-30 11:53:00,
2013-07-30 06:12:00,42.0,33.0,30.10,ESE,113,0.0,-999.0,71,-99.99,,,-99.99,,2013-07-30 12:12:00,
2013-07-30 06:22:00,43.0,35.0,30.11,ESE,113,0.0,-999.0,72,-99.99,,,-99.99,,2013-07-30 12:22:00,
2013-07-30 06:33:00,43.0,35.0,30.11,ESE,113,0.0,-999.0,72,-99.99,,,-99.99,,2013-07-30 12:33:00,
2013-07-30 06:42:00,43.0,35.0,30.11,ESE,113,0.0,-999.0,72,-99.99,,,-99.99,,2013-07-30 12:42:00,
2013-07-30 06:53:00,43.0,35.0,30.12,ESE,111,0.0,-999.0,72,-99.99,,,-99.99,,2013-07-30 12:53:00,
2013-07-30 07:02:00,43.0,35.0,30.12,ESE,111,0.0,-999.0,72,-99.99,,,-99.99,,2013-07-30 13:02:00,
2013-07-30 07:12:00,44.0,35.0,30.11,ESE,111,0.0,-999.0,71,-99.99,,,-99.99,,2013-07-30 13:12:00,
2013-07-30 07:22:00,45.0,36.0,30.11,ESE,111,0.0,-999.0,70,-99.99,,,-99.99,,2013-07-30 13:22:00,
2013-07-30 07:32:00,45.0,36.0,30.11,ESE,111,0.0,-999.0,70,-99.99,,,-99.99,,2013-07-30 13:32:00,
2013-07-30 07:42:00,47.0,36.0,30.11,ENE,65,1.0,-999.0,65,-99.99,,,-99.99,,2013-07-30 13:42:00,
2013-07-30 08:02:00,49.0,37.0,30.11,WSW,242,1.0,-999.0,63,-99.99,,,-99.99,,2013-07-30 14:02:00,
2013-07-30 08:12:00,51.0,38.0,30.11,SE,140,1.0,-999.0,60,-99.99,,,-99.99,,2013-07-30 14:12:00,
2013-07-30 08:22:00,52.0,37.0,30.12,ESE,105,2.0,-999.0,57,-99.99,,,-99.99,,2013-07-30 14:22:00,
2013-07-30 08:33:00,52.0,37.0,30.12,ESE,105,2.0,-999.0,57,-99.99,,,-99.99,,2013-07-30 14:33:00,
2013-07-30 08:43:00,53.0,38.0,30.12,East,83,2.0,-999.0,56,-99.99,,,-99.99,,2013-07-30 14:43:00,
2013-07-30 08:53:00,54.0,37.0,30.11,East,92,3.0,-999.0,53,-99.99,,,-99.99,,2013-07-30 14:53:00,
2013-07-30 09:02:00,54.0,37.0,30.11,East,92,3.0,-999.0,53,-99.99,,,-99.99,,2013-07-30 15:02:00,
2013-07-30 09:12:00,54.0,37.0,30.11,SSW,213,3.0,-999.0,52,-99.99,,,-99.99,,2013-07-30 15:12:00,
2013-07-30 09:23:00,55.0,38.0,30.11,ENE,58,2.0,-999.0,52,-99.99,,,-99.99,,2013-07-30 15:23:00,
2013-07-30 09:33:00,55.0,38.0,30.11,ENE,58,2.0,-999.0,52,-99.99,,,-99.99,,2013-07-30 15:33:00,
2013-07-30 09:43:00,57.0,38.0,30.11,East,92,3.0,-999.0,49,-99.99,,,-99.99,,2013-07-30 15:43:00,
2013-07-30 09:52:00,57.0,38.0,30.12,WSW,255,3.0,-999.0,49,-99.99,,,-99.99,,2013-07-30 15:52:00,
2013-07-30 10:02:00,57.0,38.0,30.12,WSW,255,3.0,-999.0,49,-99.99,,,-99.99,,2013-07-30 16:02:00,
2013-07-30 10:12:00,59.0,38.0,30.12,ENE,65,2.0,-999.0,46,-99.99,,,-99.99,,2013-07-30 16:12:00,
2013-07-30 10:22:00,59.0,38.0,30.12,East,89,3.0,-999.0,46,-99.99,,,-99.99,,2013-07-30 16:22:00,
2013-07-30 10:33:00,59.0,38.0,30.12,East,89,3.0,-999.0,46,-99.99,,,-99.99,,2013-07-30 16:33:00,
2013-07-30 10:43:00,59.0,37.0,30.12,SW,221,4.0,-999.0,44,-99.99,,,-99.99,,2013-07-30 16:43:00,
2013-07-30 10:52:00,59.0,37.0,30.12,ENE,74,4.0,-999.0,44,-99.99,,,-99.99,,2013-07-30 16:52:00,
2013-07-30 11:02:00,59.0,37.0,30.12,ENE,74,4.0,-999.0,44,-99.99,,,-99.99,,2013-07-30 17:02:00,
2013-07-30 11:12:00,60.0,37.0,30.12,SSE,150,4.0,-999.0,43,-99.99,,,-99.99,,2013-07-30 17:12:00,
2013-07-30 11:22:00,61.0,38.0,30.12,East,93,4.0,-999.0,42,-99.99,,,-99.99,,2013-07-30 17:22:00,
2013-07-30 11:32:00,61.0,38.0,30.12,East,93,4.0,-999.0,42,-99.99,,,-99.99,,2013-07-30 17:32:00,
2013-07-30 11:43:00,62.0,38.0,30.12,East,98,4.0,-999.0,41,-99.99,,,-99.99,,2013-07-30 17:43:00,
2013-07-30 11:53:00,62.0,38.0,30.13,ESE,105,4.0,-999.0,41,-99.99,,,-99.99,,2013-07-30 17:53:00,
2013-07-30 12:03:00,62.0,38.0,30.13,ESE,105,4.0,-999.0,41,-99.99,,,-99.99,,2013-07-30 18:03:00,
2013-07-30 12:12:00,62.0,39.0,30.13,SE,146,4.0,-999.0,43,-99.99,,,-99.99,,2013-07-30 18:12:00,
2013-07-30 12:23:00,63.0,38.0,30.14,East,82,4.0,-999.0,40,-99.99,,,-99.99,,2013-07-30 18:23:00,
2013-07-30 12:32:00,63.0,38.0,30.14,East,82,4.0,-999.0,40,-99.99,,,-99.99,,2013-07-30 18:32:00,
2013-07-30 12:43:00,64.0,39.0,30.13,ENE,77,3.0,-999.0,39,-99.99,,,-99.99,,2013-07-30 18:43:00,
2013-07-30 12:52:00,63.0,38.0,30.13,SSE,164,5.0,-999.0,39,-99.99,,,-99.99,,2013-07-30 18:52:00,
2013-07-30 13:02:00,63.0,38.0,30.13,SSE,164,5.0,-999.0,39,-99.99,,,-99.99,,2013-07-30 19:02:00,
2013-07-30 13:12:00,64.0,39.0,30.13,SSE,163,3.0,-999.0,39,-99.99,,,-99.99,,2013-07-30 19:12:00,
2013-07-30 13:22:00,64.0,40.0,30.12,ESE,118,3.0,-999.0,41,-99.99,,,-99.99,,2013-07-30 19:22:00,
2013-07-30 13:33:00,64.0,40.0,30.12,ESE,118,3.0,-999.0,41,-99.99,,,-99.99,,2013-07-30 19:33:00,
2013-07-30 13:44:00,63.0,38.0,30.13,East,86,4.0,-999.0,39,-99.99,,,-99.99,,2013-07-30 19:44:00,
2013-07-30 13:52:00,64.0,39.0,30.12,South,180,3.0,-999.0,39,-99.99,,,-99.99,,2013-07-30 19:52:00,
2013-07-30 14:02:00,64.0,39.0,30.12,South,180,3.0,-999.0,39,-99.99,,,-99.99,,2013-07-30 20:02:00,
2013-07-30 14:12:00,64.0,37.0,30.12,SW,215,4.0,-999.0,37,-99.99,,,-99.99,,2013-07-30 20:12:00,
2013-07-30 14:22:00,64.0,37.0,30.13,ENE,77,2.0,-999.0,36,-99.99,,,-99.99,,2013-07-30 20:22:00,
2013-07-30 14:32:00,64.0,37.0,30.13,ENE,77,2.0,-999.0,36,-99.99,,,-99.99,,2013-07-30 20:32:00,
2013-07-30 14:43:00,63.0,37.0,30.13,ESE,109,2.0,-999.0,38,-99.99,,,-99.99,,2013-07-30 20:43:00,
2013-07-30 14:52:00,65.0,37.0,30.12,SSW,203,3.0,-999.0,36,-99.99,,,-99.99,,2013-07-30 20:52:00,
2013-07-30 15:02:00,65.0,37.0,30.12,SSW,203,3.0,-999.0,36,-99.99,,,-99.99,,2013-07-30 21:02:00,
2013-07-30 15:12:00,65.0,39.0,30.12,WSW,243,1.0,-999.0,38,-99.99,,,-99.99,,2013-07-30 21:12:00,
2013-07-30 15:22:00,63.0,38.0,30.11,SSW,205,0.0,-999.0,40,-99.99,,,-99.99,,2013-07-30 21:22:00,
2013-07-30 15:32:00,63.0,38.0,30.11,SSW,205,0.0,-999.0,40,-99.99,,,-99.99,,2013-07-30 21:32:00,
2013-07-30 15:42:00,62.0,38.0,30.11,WSW,253,2.0,-999.0,41,-99.99,,,-99.99,,2013-07-30 21:42:00,
2013-07-30 15:52:00,65.0,36.0,30.11,ESE,113,3.0,-999.0,34,-99.99,,,-99.99,,2013-07-30 21:52:00,
2013-07-30 16:02:00,65.0,36.0,30.11,ESE,113,3.0,-999.0,34,-99.99,,,-99.99,,2013-07-30 22:02:00,
2013-07-30 16:12:00,66.0,35.0,30.10,WNW,296,2.0,-999.0,32,-99.99,,,-99.99,,2013-07-30 22:12:00,
2013-07-30 16:22:00,66.0,37.0,30.10,ESE,110,1.0,-999.0,34,-99.99,,,-99.99,,2013-07-30 22:22:00,
2013-07-30 16:32:00,66.0,37.0,30.10,ESE,110,1.0,-999.0,34,-99.99,,,-99.99,,2013-07-30 22:32:00,
2013-07-30 16:43:00,65.0,37.0,30.11,SSW,198,1.0,-999.0,36,-99.99,,,-99.99,,2013-07-30 22:43:00,
2013-07-30 16:52:00,64.0,36.0,30.10,ENE,78,1.0,-999.0,35,-99.99,,,-99.99,,2013-07-30 22:52:00,
2013-07-30 17:02:00,64.0,36.0,30.10,ENE,78,1.0,-999.0,35,-99.99,,,-99.99,,2013-07-30 23:02:00,
2013-07-30 17:12:00,63.0,37.0,30.10,SSW,196,0.0,-999.0,38,-99.99,,,-99.99,,2013-07-30 23:12:00,
2013-07-30 17:22:00,63.0,38.0,30.11,South,172,0.0,-999.0,39,-99.99,,,-99.99,,2013-07-30 23:22:00,
2013-07-30 17:32:00,63.0,38.0,30.11,South,172,0.0,-999.0,39,-99.99,,,-99.99,,2013-07-30 23:32:00,
2013-07-30 17:42:00,63.0,38.0,30.11,SW,228,1.0,-999.0,39,-99.99,,,-99.99,,2013-07-30 23:42:00,
2013-07-30 17:53:00,64.0,38.0,30.09,East,82,1.0,-999.0,38,-99.99,,,-99.99,,2013-07-30 23:53:00,
2013-07-30 18:02:00,64.0,38.0,30.09,East,82,1.0,-999.0,38,-99.99,,,-99.99,,2013-07-31 00:02:00,
2013-07-30 18:12:00,64.0,38.0,30.09,SSW,200,2.0,-999.0,38,-99.99,,,-99.99,,2013-07-31 00:12:00,
2013-07-30 18:22:00,63.0,37.0,30.10,ESE,107,2.0,-999.0,38,-99.99,,,-99.99,,2013-07-31 00:22:00,
2013-07-30 18:32:00,63.0,37.0,30.10,ESE,107,2.0,-999.0,38,-99.99,,,-99.99,,2013-07-31 00:32:00,
2013-07-30 18:43:00,62.0,37.0,30.10,South,174,1.0,-999.0,39,-99.99,,,-99.99,,2013-07-31 00:43:00,
2013-07-30 18:53:00,62.0,37.0,30.10,South,174,1.0,-999.0,39,-99.99,,,-99.99,,2013-07-31 00:53:00,
2013-07-30 19:02:00,62.0,37.0,30.11,SSE,152,1.0,-999.0,40,-99.99,,,-99.99,,2013-07-31 01:02:00,
2013-07-30 19:12:00,61.0,37.0,30.11,East,95,1.0,-999.0,41,-99.99,,,-99.99,,2013-07-31 01:12:00,
2013-07-30 19:22:00,61.0,37.0,30.11,East,95,1.0,-999.0,41,-99.99,,,-99.99,,2013-07-31 01:22:00,
2013-07-30 19:32:00,60.0,37.0,30.12,SW,219,0.0,-999.0,43,-99.99,,,-99.99,,2013-07-31 01:32:00,
2013-07-30 19:42:00,59.0,38.0,30.12,SW,219,0.0,-999.0,45,-99.99,,,-99.99,,2013-07-31 01:42:00,
2013-07-30 19:52:00,59.0,38.0,30.12,SW,219,0.0,-999.0,45,-99.99,,,-99.99,,2013-07-31 01:52:00,
2013-07-30 20:02:00,58.0,38.0,30.13,SW,219,0.0,-999.0,48,-99.99,,,-99.99,,2013-07-31 02:02:00,
2013-07-30 20:12:00,58.0,38.0,30.13,SW,219,0.0,-999.0,48,-99.99,,,-99.99,,2013-07-31 02:12:00,
2013-07-30 20:22:00,57.0,38.0,30.14,SW,219,0.0,-999.0,49,-99.99,,,-99.99,,2013-07-31 02:22:00,
2013-07-30 20:32:00,57.0,38.0,30.14,SW,219,0.0,-999.0,49,-99.99,,,-99.99,,2013-07-31 02:32:00,
2013-07-30 20:42:00,56.0,38.0,30.14,SW,219,0.0,-999.0,51,-99.99,,,-99.99,,2013-07-31 02:42:00,
2013-07-30 20:52:00,55.0,39.0,30.15,SSW,200,0.0,-999.0,55,-99.99,,,-99.99,,2013-07-31 02:52:00,
2013-07-30 21:02:00,55.0,39.0,30.15,SSW,200,0.0,-999.0,55,-99.99,,,-99.99,,2013-07-31 03:02:00,
2013-07-30 21:12:00,54.0,39.0,30.15,SSW,202,0.0,-999.0,56,-99.99,,,-99.99,,2013-07-31 03:12:00,
2013-07-30 21:22:00,54.0,39.0,30.16,SSW,201,0.0,-999.0,57,-99.99,,,-99.99,,2013-07-31 03:22:00,
2013-07-30 21:32:00,54.0,39.0,30.16,SSW,201,0.0,-999.0,57,-99.99,,,-99.99,,2013-07-31 03:32:00,
2013-07-30 21:42:00,53.0,39.0,30.16,SSW,201,0.0,-999.0,59,-99.99,,,-99.99,,2013-07-31 03:42:00,
2013-07-30 21:52:00,52.0,38.0,30.16,SSW,200,0.0,-999.0,59,-99.99,,,-99.99,,2013-07-31 03:52:00,
2013-07-30 22:02:00,52.0,38.0,30.16,SSW,200,0.0,-999.0,59,-99.99,,,-99.99,,2013-07-31 04:02:00,
2013-07-30 22:12:00,51.0,38.0,30.17,SSW,200,0.0,-999.0,60,-99.99,,,-99.99,,2013-07-31 04:12:00,
2013-07-30 22:22:00,51.0,38.0,30.17,SSW,200,0.0,-999.0,60,-99.99,,,-99.99,,2013-07-31 04:22:00,
2013-07-30 22:32:00,51.0,38.0,30.17,SSW,200,0.0,-999.0,60,-99.99,,,-99.99,,2013-07-31 04:32:00,
2013-07-30 22:42:00,51.0,38.0,30.17,SSW,200,0.0,-999.0,60,-99.99,,,-99.99,,2013-07-31 04:42:00,
2013-07-30 22:52:00,51.0,38.0,30.17,SSW,200,0.0,-999.0,60,-99.99,,,-99.99,,2013-07-31 04:52:00,
2013-07-30 23:11:00,49.0,37.0,30.17,SSW,200,0.0,-999.0,64,-99.99,,,-99.99,,2013-07-31 05:11:00,
2013-07-30 23:22:00,48.0,37.0,30.17,SSW,200,0.0,-999.0,65,-99.99,,,-99.99,,2013-07-31 05:22:00,
2013-07-30 23:32:00,48.0,37.0,30.17,SSW,200,0.0,-999.0,65,-99.99,,,-99.99,,2013-07-31 05:32:00,
2013-07-30 23:42:00,48.0,37.0,30.17,SSW,200,0.0,-999.0,65,-99.99,,,-99.99,,2013-07-31 05:42:00,
2013-07-30 23:52:00,49.0,37.0,30.16,SSW,196,0.0,-999.0,64,-99.99,,,-99.99,,2013-07-31 05:52:00,